Weather History for Mineral Point, WI

Change the Weather History Date:

Monday, January 9, 2012

  Actual Average (KLNR) Record (KLNR)
Temperature  
Mean Temperature 36 °F -  
Max Temperature 46 °F 25 °F 50 °F (2002)
Min Temperature 26 °F 11 °F -20 °F (2014)
Degree Days  
Heating Degree Days 29    
Moisture  
Dew Point 26 °F    
Average Humidity 69    
Maximum Humidity 86    
Minimum Humidity 43    
Precipitation  
Precipitation 0.00 in - - ()
Sea Level Pressure  
Sea Level Pressure 30.02 in    
Wind  
Wind Speed 10 mph (SW)    
Max Wind Speed 22 mph    
Max Gust Speed 29 mph    
Visibility 10 miles    
Events      
Averages and records for this station are not official NWS values.
T = Trace of Precipitation, MM = Missing Value Source: NWS Daily Summary

Daily Weather History Graph

Daily Weather History Graph

Search for Another Location

Airport:

Trip Planner

Search our weather history database for the weather conditions in past years. The results will help you decide how hot, cold, wet, or windy it might be!

Date:

Astronomy

Jan. 09, 2012 Rise Set
Actual Time 7:31 AM CST 4:44 PM CST
Civil Twilight 6:59 AM CST 5:16 PM CST
Nautical Twilight 6:24 AM CST 5:51 PM CST
Astronomical Twilight 5:50 AM CST 6:26 PM CST
Moon 5:32 PM CST (1/9) 7:30 AM CST (1/9)
Length of Visible Light 10h 16m
Length of Day
9h 13m
Full, 100% of the Moon is Illuminated
Jan 9
Full
Jan 16
Last Quarter
Jan 23
New
Jan 30
First Quarter
Feb 7
Full

Hourly Weather History & Observations

Time (CST) Temp. Windchill Dew Point Humidity Pressure Visibility Wind Dir Wind Speed Gust Speed Precip Events Conditions
12:15 AM 28.4 °F 22.2 °F 23.0 °F 80% 30.19 in 10.0 mi SSW 5.8 mph - N/A   Clear
12:35 AM 28.4 °F 22.2 °F 24.8 °F 86% 30.18 in 10.0 mi SSW 5.8 mph - N/A   Clear
12:55 AM 28.4 °F 23.3 °F 24.8 °F 86% 30.17 in 10.0 mi SSW 4.6 mph - N/A   Clear
1:15 AM 30.2 °F 24.3 °F 24.8 °F 80% 30.17 in 10.0 mi SSW 5.8 mph - N/A   Clear
1:35 AM 28.4 °F 23.3 °F 24.8 °F 86% 30.16 in 10.0 mi South 4.6 mph - N/A   Clear
1:55 AM 28.4 °F 20.4 °F 23.0 °F 80% 30.16 in 10.0 mi SSW 8.1 mph - N/A   Clear
2:15 AM 28.4 °F 22.2 °F 23.0 °F 80% 30.15 in 10.0 mi South 5.8 mph - N/A   Clear
2:35 AM 26.6 °F 20.0 °F 23.0 °F 86% 30.15 in 10.0 mi South 5.8 mph - N/A   Clear
2:55 AM 26.6 °F 19.1 °F 23.0 °F 86% 30.15 in 10.0 mi SSW 6.9 mph - N/A   Clear
3:15 AM 28.4 °F 20.4 °F 23.0 °F 80% 30.14 in 10.0 mi SW 8.1 mph - N/A   Clear
3:35 AM 28.4 °F 20.4 °F 23.0 °F 80% 30.12 in 10.0 mi SSW 8.1 mph - N/A   Clear
3:55 AM 30.2 °F 22.6 °F 24.8 °F 80% 30.12 in 10.0 mi SW 8.1 mph - N/A   Clear
4:15 AM 30.2 °F 22.6 °F 24.8 °F 80% 30.11 in 10.0 mi SW 8.1 mph - N/A   Clear
4:35 AM 30.2 °F 23.4 °F 24.8 °F 80% 30.10 in 10.0 mi SW 6.9 mph - N/A   Clear
4:55 AM 30.2 °F 22.6 °F 24.8 °F 80% 30.10 in 10.0 mi SW 8.1 mph - N/A   Clear
5:15 AM 30.2 °F 21.9 °F 24.8 °F 80% 30.10 in 10.0 mi SW 9.2 mph - N/A   Clear
5:35 AM 30.2 °F 22.6 °F 24.8 °F 80% 30.09 in 10.0 mi SW 8.1 mph - N/A   Clear
5:55 AM 32.0 °F 25.6 °F 26.6 °F 80% 30.10 in 10.0 mi SW 6.9 mph - N/A   Clear
6:15 AM 32.0 °F 24.2 °F 26.6 °F 80% 30.09 in 10.0 mi SW 9.2 mph - N/A   Clear
6:35 AM 32.0 °F 23.6 °F 26.6 °F 80% 30.08 in 10.0 mi SW 10.4 mph - N/A   Clear
6:55 AM 32.0 °F 23.0 °F 26.6 °F 80% 30.06 in 10.0 mi SW 11.5 mph - N/A   Scattered Clouds
7:15 AM 32.0 °F 23.6 °F 26.6 °F 80% 30.06 in 10.0 mi SW 10.4 mph - N/A   Scattered Clouds
7:35 AM 32.0 °F 23.6 °F 26.6 °F 80% 30.05 in 10.0 mi SSW 10.4 mph - N/A   Scattered Clouds
7:55 AM 32.0 °F 24.2 °F 26.6 °F 80% 30.05 in 10.0 mi SW 9.2 mph - N/A   Scattered Clouds
8:15 AM 32.0 °F 23.0 °F 26.6 °F 80% 30.04 in 10.0 mi SW 11.5 mph - N/A   Scattered Clouds
8:35 AM 32.0 °F 22.1 °F 26.6 °F 80% 30.04 in 10.0 mi WSW 13.8 mph - N/A   Clear
8:55 AM 33.8 °F 23.9 °F 26.6 °F 75% 30.03 in 10.0 mi WSW 15.0 mph - N/A   Mostly Cloudy
9:15 AM 33.8 °F 25.3 °F 26.6 °F 75% 30.03 in 10.0 mi SW 11.5 mph 18.4 mph N/A   Mostly Cloudy
9:35 AM 35.6 °F 27.1 °F 26.6 °F 70% 30.01 in 10.0 mi SW 12.7 mph - N/A   Scattered Clouds
10:15 AM 37.4 °F 27.8 °F 28.4 °F 70% 30.00 in 10.0 mi SW 17.3 mph 23.0 mph N/A   Clear
10:35 AM 37.4 °F 28.2 °F 28.4 °F 70% 29.99 in 10.0 mi WSW 16.1 mph 21.9 mph N/A   Clear
10:55 AM 39.2 °F 30.5 °F 28.4 °F 65% 29.97 in 10.0 mi WSW 16.1 mph 25.3 mph N/A   Clear
11:15 AM 41.0 °F 32.5 °F 28.4 °F 61% 29.95 in 10.0 mi SW 17.3 mph 25.3 mph N/A   Clear
11:35 AM 41.0 °F 31.4 °F 28.4 °F 61% 29.94 in 10.0 mi SW 21.9 mph 27.6 mph N/A   Clear
11:55 AM 42.8 °F 35.1 °F 28.4 °F 57% 29.93 in 10.0 mi WSW 16.1 mph 23.0 mph N/A   Clear
12:15 PM 42.8 °F 34.5 °F 26.6 °F 53% 29.92 in 10.0 mi WSW 18.4 mph 25.3 mph N/A   Clear
12:35 PM 42.8 °F 34.5 °F 26.6 °F 53% 29.91 in 10.0 mi WSW 18.4 mph 25.3 mph N/A   Clear
12:55 PM 44.6 °F 36.4 °F 26.6 °F 49% 29.90 in 10.0 mi WSW 20.7 mph 26.5 mph N/A   Clear
1:15 PM 44.6 °F 37.4 °F 26.6 °F 49% 29.89 in 10.0 mi WSW 16.1 mph 24.2 mph N/A   Clear
1:35 PM 44.6 °F 37.2 °F 26.6 °F 49% 29.89 in 10.0 mi West 17.3 mph 21.9 mph N/A   Clear
1:55 PM 46.4 °F 38.7 °F 26.6 °F 46% 29.89 in 10.0 mi WSW 20.7 mph - N/A   Clear
2:15 PM 46.4 °F 39.2 °F 24.8 °F 43% 29.89 in 10.0 mi West 18.4 mph 28.8 mph N/A   Clear
2:35 PM 46.4 °F 39.0 °F 26.6 °F 46% 29.89 in 10.0 mi West 19.6 mph 23.0 mph N/A   Clear
2:55 PM 46.4 °F 39.2 °F 26.6 °F 46% 29.90 in 10.0 mi West 18.4 mph 25.3 mph N/A   Clear
3:15 PM 46.4 °F 40.1 °F 26.6 °F 46% 29.90 in 10.0 mi West 15.0 mph 21.9 mph N/A   Clear
3:35 PM 46.4 °F 39.2 °F 26.6 °F 46% 29.90 in 10.0 mi West 18.4 mph 24.2 mph N/A   Clear
4:15 PM 44.6 °F 38.4 °F 26.6 °F 49% 29.91 in 10.0 mi West 12.7 mph - N/A   Clear
4:35 PM 42.8 °F 37.0 °F 26.6 °F 53% 29.92 in 10.0 mi West 10.4 mph - N/A   Clear
4:55 PM 42.8 °F 37.5 °F 28.4 °F 57% 29.92 in 10.0 mi West 9.2 mph - N/A   Clear
5:15 PM 41.0 °F 34.7 °F 28.4 °F 61% 29.93 in 10.0 mi West 10.4 mph - N/A   Clear
5:35 PM 41.0 °F 35.2 °F 28.4 °F 61% 29.93 in 10.0 mi West 9.2 mph - N/A   Clear
5:55 PM 41.0 °F 35.8 °F 28.4 °F 61% 29.94 in 10.0 mi West 8.1 mph - N/A   Clear
6:15 PM 41.0 °F 35.2 °F 28.4 °F 61% 29.94 in 10.0 mi West 9.2 mph - N/A   Clear
6:35 PM 37.4 °F 30.8 °F 28.4 °F 70% 29.95 in 10.0 mi West 9.2 mph - N/A   Clear
6:55 PM 39.2 °F 33.6 °F 28.4 °F 65% 29.96 in 10.0 mi West 8.1 mph - N/A   Clear
7:15 PM 37.4 °F 32.8 °F 28.4 °F 70% 29.97 in 10.0 mi West 5.8 mph - N/A   Clear
7:35 PM 37.4 °F 32.8 °F 28.4 °F 70% 29.97 in 10.0 mi West 5.8 mph - N/A   Clear
7:55 PM 37.4 °F 31.4 °F 28.4 °F 70% 29.98 in 10.0 mi West 8.1 mph - N/A   Clear
8:15 PM 37.4 °F 31.4 °F 28.4 °F 70% 29.98 in 10.0 mi West 8.1 mph - N/A   Clear
8:35 PM 37.4 °F 31.4 °F 28.4 °F 70% 29.98 in 10.0 mi West 8.1 mph - N/A   Clear
8:55 PM 37.4 °F 32.1 °F 28.4 °F 70% 29.98 in 10.0 mi West 6.9 mph - N/A   Clear
9:15 PM 35.6 °F 30.7 °F 28.4 °F 75% 29.99 in 10.0 mi WSW 5.8 mph - N/A   Clear
9:35 PM 35.6 °F 29.9 °F 28.4 °F 75% 29.99 in 10.0 mi West 6.9 mph - N/A   Clear
9:55 PM 35.6 °F 29.9 °F 28.4 °F 75% 29.99 in 10.0 mi West 6.9 mph - N/A   Clear
10:15 PM 35.6 °F 29.9 °F 28.4 °F 75% 29.98 in 10.0 mi WSW 6.9 mph - N/A   Clear
10:35 PM 35.6 °F 29.9 °F 28.4 °F 75% 29.98 in 10.0 mi West 6.9 mph - N/A   Clear
10:55 PM 35.6 °F 31.7 °F 28.4 °F 75% 29.98 in 10.0 mi West 4.6 mph - N/A   Clear
11:15 PM 33.8 °F 27.7 °F 28.4 °F 81% 29.98 in 10.0 mi West 6.9 mph - N/A   Clear
11:35 PM 35.6 °F 31.7 °F 28.4 °F 75% 29.98 in 10.0 mi West 4.6 mph - N/A   Clear